TimeMST,TemperatureF,Dew PointF,Humidity,Sea Level PressureIn,VisibilityMPH,Wind Direction,Wind SpeedMPH,Gust SpeedMPH,PrecipitationIn,Events,Conditions,WindDirDegrees,DateUTC
12:15 AM,21.2,14.0,74,30.28,10.0,Calm,Calm,-,N/A,,Clear,0,2013-01-21 07:15:00
12:35 AM,21.2,14.0,74,30.28,10.0,Calm,Calm,-,N/A,,Clear,0,2013-01-21 07:35:00
12:55 AM,21.2,14.0,74,30.28,10.0,Calm,Calm,-,N/A,,Clear,0,2013-01-21 07:55:00
1:15 AM,19.4,14.0,80,30.28,10.0,Calm,Calm,-,N/A,,Clear,0,2013-01-21 08:15:00
1:35 AM,19.4,14.0,80,30.28,10.0,Calm,Calm,-,N/A,,Clear,0,2013-01-21 08:35:00
1:55 AM,17.6,14.0,86,30.28,9.0,Calm,Calm,-,N/A,,Clear,0,2013-01-21 08:55:00
2:15 AM,17.6,12.2,79,30.28,10.0,Calm,Calm,-,N/A,,Clear,0,2013-01-21 09:15:00
2:35 AM,17.6,14.0,86,30.28,9.0,Calm,Calm,-,N/A,,Clear,0,2013-01-21 09:35:00
2:55 AM,19.4,14.0,80,30.28,10.0,Calm,Calm,-,N/A,,Clear,0,2013-01-21 09:55:00
3:15 AM,17.6,14.0,86,30.28,10.0,Calm,Calm,-,N/A,,Clear,0,2013-01-21 10:15:00
3:35 AM,17.6,14.0,86,30.28,10.0,Calm,Calm,-,N/A,,Clear,0,2013-01-21 10:35:00
3:55 AM,15.8,10.4,79,30.27,10.0,Calm,Calm,-,N/A,,Clear,0,2013-01-21 10:55:00
4:15 AM,17.6,10.4,73,30.27,10.0,Calm,Calm,-,N/A,,Clear,0,2013-01-21 11:15:00
4:35 AM,17.6,12.2,79,30.27,10.0,East,5.8,-,N/A,,Clear,100,2013-01-21 11:35:00
4:55 AM,17.6,10.4,73,30.27,10.0,East,4.6,-,N/A,,Clear,90,2013-01-21 11:55:00
5:15 AM,15.8,10.4,79,30.27,10.0,East,4.6,-,N/A,,Clear,90,2013-01-21 12:15:00
5:35 AM,15.8,10.4,79,30.27,10.0,Calm,Calm,-,N/A,,Clear,0,2013-01-21 12:35:00
5:55 AM,15.8,10.4,79,30.27,10.0,Calm,Calm,-,N/A,,Clear,0,2013-01-21 12:55:00
6:15 AM,14.0,10.4,86,30.28,10.0,Calm,Calm,-,N/A,,Clear,0,2013-01-21 13:15:00
6:35 AM,15.8,10.4,79,30.28,10.0,Calm,Calm,-,N/A,,Clear,0,2013-01-21 13:35:00
6:55 AM,15.8,10.4,79,30.29,10.0,Calm,Calm,-,N/A,,Clear,0,2013-01-21 13:55:00
7:15 AM,15.8,10.4,79,30.28,10.0,Calm,Calm,-,N/A,,Clear,0,2013-01-21 14:15:00
7:35 AM,15.8,10.4,79,30.29,9.0,Calm,Calm,-,N/A,,Clear,0,2013-01-21 14:35:00
7:55 AM,15.8,8.6,73,30.30,8.0,Calm,Calm,-,N/A,,Clear,0,2013-01-21 14:55:00
8:15 AM,17.6,14.0,86,30.31,9.0,Calm,Calm,-,N/A,,Clear,0,2013-01-21 15:15:00
8:35 AM,21.2,15.8,80,30.31,10.0,Calm,Calm,-,N/A,,Clear,0,2013-01-21 15:35:00
8:55 AM,23.0,15.8,74,30.32,10.0,Calm,Calm,-,N/A,,Clear,0,2013-01-21 15:55:00
9:15 AM,24.8,15.8,69,30.33,10.0,Calm,Calm,-,N/A,,Clear,0,2013-01-21 16:15:00
9:35 AM,26.6,17.6,69,30.34,10.0,Calm,Calm,-,N/A,,Clear,0,2013-01-21 16:35:00
9:55 AM,28.4,17.6,64,30.34,10.0,Calm,Calm,-,N/A,,Unknown,0,2013-01-21 16:55:00
10:15 AM,32.0,17.6,55,30.34,10.0,North,6.9,-,N/A,,Clear,350,2013-01-21 17:15:00
10:35 AM,32.0,15.8,51,30.35,10.0,North,8.1,-,N/A,,Clear,360,2013-01-21 17:35:00
10:55 AM,32.0,15.8,51,30.35,10.0,North,6.9,-,N/A,,Clear,10,2013-01-21 17:55:00
11:15 AM,33.8,15.8,48,30.35,10.0,North,5.8,-,N/A,,Clear,10,2013-01-21 18:15:00
11:35 AM,35.6,15.8,44,30.34,10.0,Calm,Calm,-,N/A,,Clear,0,2013-01-21 18:35:00
11:55 AM,37.4,17.6,45,30.33,10.0,Calm,Calm,-,N/A,,Clear,0,2013-01-21 18:55:00
12:15 PM,39.2,17.6,42,30.32,10.0,Calm,Calm,-,N/A,,Clear,0,2013-01-21 19:15:00
12:35 PM,41.0,17.6,39,30.31,10.0,NNE,5.8,-,N/A,,Clear,20,2013-01-21 19:35:00
12:55 PM,41.0,17.6,39,30.30,10.0,North,5.8,-,N/A,,Clear,360,2013-01-21 19:55:00
1:15 PM,42.8,17.6,36,30.29,10.0,North,6.9,-,N/A,,Clear,10,2013-01-21 20:15:00
1:35 PM,44.6,17.6,34,30.28,10.0,North,9.2,-,N/A,,Clear,10,2013-01-21 20:35:00
1:55 PM,44.6,17.6,34,30.28,10.0,North,8.1,-,N/A,,Clear,360,2013-01-21 20:55:00
2:15 PM,44.6,15.8,31,30.28,10.0,NNW,8.1,-,N/A,,Clear,340,2013-01-21 21:15:00
2:35 PM,44.6,15.8,31,30.28,10.0,North,9.2,-,N/A,,Clear,350,2013-01-21 21:35:00
2:55 PM,44.6,15.8,31,30.28,10.0,NNW,9.2,-,N/A,,Clear,340,2013-01-21 21:55:00
3:15 PM,44.6,15.8,31,30.27,10.0,North,9.2,-,N/A,,Clear,350,2013-01-21 22:15:00
3:35 PM,44.6,15.8,31,30.27,10.0,North,10.4,-,N/A,,Clear,350,2013-01-21 22:35:00
3:55 PM,44.6,15.8,31,30.27,10.0,NNW,9.2,-,N/A,,Clear,340,2013-01-21 22:55:00
4:15 PM,44.6,14.0,29,30.27,10.0,North,6.9,-,N/A,,Clear,350,2013-01-21 23:15:00
4:35 PM,42.8,14.0,31,30.27,10.0,NNW,9.2,-,N/A,,Clear,340,2013-01-21 23:35:00
4:55 PM,41.0,14.0,33,30.27,10.0,NNW,8.1,-,N/A,,Clear,340,2013-01-21 23:55:00
5:15 PM,41.0,14.0,33,30.27,10.0,North,5.8,-,N/A,,Clear,350,2013-01-22 00:15:00
5:35 PM,37.4,14.0,38,30.27,10.0,NNW,5.8,-,N/A,,Clear,340,2013-01-22 00:35:00
5:55 PM,35.6,14.0,41,30.27,10.0,North,5.8,-,N/A,,Clear,350,2013-01-22 00:55:00
6:15 PM,32.0,14.0,48,30.28,10.0,North,5.8,-,N/A,,Clear,350,2013-01-22 01:15:00
6:35 PM,32.0,12.2,44,30.29,10.0,NNE,3.5,-,N/A,,Clear,20,2013-01-22 01:35:00
6:55 PM,32.0,10.4,41,30.29,10.0,Calm,Calm,-,N/A,,Clear,0,2013-01-22 01:55:00
7:15 PM,28.4,14.0,55,30.30,10.0,Calm,Calm,-,N/A,,Clear,0,2013-01-22 02:15:00
7:35 PM,30.2,12.2,47,30.30,10.0,Calm,Calm,-,N/A,,Clear,0,2013-01-22 02:35:00
7:55 PM,30.2,12.2,47,30.30,10.0,Calm,Calm,-,N/A,,Clear,0,2013-01-22 02:55:00
8:15 PM,28.4,14.0,55,30.30,10.0,East,4.6,-,N/A,,Clear,90,2013-01-22 03:15:00
8:35 PM,28.4,14.0,55,30.31,10.0,East,3.5,-,N/A,,Clear,80,2013-01-22 03:35:00
8:55 PM,26.6,14.0,59,30.31,10.0,Calm,Calm,-,N/A,,Clear,0,2013-01-22 03:55:00
9:15 PM,26.6,14.0,59,30.31,10.0,Calm,Calm,-,N/A,,Clear,0,2013-01-22 04:15:00
9:35 PM,24.8,14.0,64,30.31,10.0,ENE,4.6,-,N/A,,Clear,70,2013-01-22 04:35:00
9:55 PM,23.0,14.0,68,30.32,10.0,Calm,Calm,-,N/A,,Clear,0,2013-01-22 04:55:00
10:15 PM,23.0,14.0,68,30.32,10.0,Calm,Calm,-,N/A,,Clear,0,2013-01-22 05:15:00
10:35 PM,24.8,14.0,64,30.33,10.0,East,3.5,-,N/A,,Clear,90,2013-01-22 05:35:00
10:55 PM,24.8,14.0,64,30.32,10.0,East,5.8,-,N/A,,Clear,90,2013-01-22 05:55:00
11:15 PM,24.8,14.0,64,30.32,10.0,East,5.8,-,N/A,,Clear,90,2013-01-22 06:15:00
11:35 PM,24.8,12.2,59,30.32,10.0,East,3.5,-,N/A,,Clear,100,2013-01-22 06:35:00
11:55 PM,24.8,14.0,64,30.32,10.0,Calm,Calm,-,N/A,,Clear,0,2013-01-22 06:55:00